EW6103 Weather Reports


Display with metric or nautical units.
time (UTC)temp
F
wind
direction
speed
MPH
gust
MPH
rain 1hr
in
rain 24hr
in
rain mn
in
humidity
%
barometer
mb
20260904014008 59 0 0.0 1.0 0.00 0.01 0.00 89 1016.7
20260904012008 59 0 1.0 2.0 0.00 0.01 0.00 89 1016.6
20260904011008 59 0 1.0 2.0 0.00 0.01 0.00 89 1016.7
20260904010020 59 0 1.0 2.0 0.00 0.01 0.00 89 1016.8
20260904005005 60 0 0.0 1.0 0.00 0.01 0.00 88 1016.9
20260904004008 60 0 0.0 1.0 0.00 0.01 0.00 88 1017.0
20260904003011 59 0 0.0 1.0 0.00 0.01 0.00 88 1017.0
20260904002005 59 0 0.0 1.0 0.00 0.01 0.00 88 1017.2
20260904001008 59 0 0.0 1.0 0.00 0.01 0.00 87 1017.2
20260904000016 60 0 0.0 2.0 0.00 0.01 0.00 87 1017.3
20260903235005 59 0 0.0 1.0 0.00 0.01 0.00 86 1017.3
20260903234008 60 0 0.0 0.0 0.00 0.01 0.00 86 1017.3
20260903233010 60 0 0.0 0.0 0.00 0.01 0.00 85 1017.4
20260903232006 60 0 0.0 1.0 0.00 0.01 0.00 85 1017.5
20260903231008 60 0 0.0 1.0 0.00 0.01 0.00 84 1017.6
20260903230015 61 0 0.0 2.0 0.00 0.01 0.00 83 1017.3
20260903225008 61 0 0.0 2.0 0.00 0.01 0.00 82 1017.4
20260903224009 61 0 1.0 2.0 0.00 0.01 0.00 81 1017.5
20260903223011 62 0 1.0 2.0 0.00 0.01 0.00 81 1017.5
20260903222006 62 0 0.0 2.0 0.00 0.01 0.00 80 1017.5
20260903221006 62 0 1.0 2.0 0.00 0.01 0.00 80 1017.5
20260903213008 63 270 3.0 5.0 0.00 0.01 0.01 79 1017.5
20260903211006 64 270 2.0 5.0 0.00 0.01 0.01 77 1017.5
20260903210012 64 225 4.0 7.0 0.00 0.01 0.01 76 1017.4
20260903205006 65 135 4.0 8.0 0.00 0.01 0.01 75 1017.6
20260903204008 65 270 5.0 7.0 0.00 0.01 0.01 75 1017.7
20260903203008 64 45 6.0 9.0 0.00 0.01 0.01 75 1017.6
20260903202009 64 270 6.0 9.0 0.00 0.01 0.01 75 1017.5
20260903201006 65 270 6.0 9.0 0.00 0.02 0.01 74 1017.7
20260903200011 65 270 5.0 8.0 0.00 0.02 0.01 74 1017.8
20260903195006 65 135 7.0 10.0 0.00 0.02 0.01 73 1017.8
20260903193008 65 135 6.0 10.0 0.00 0.02 0.01 71 1017.7
20260903192008 66 270 7.0 11.0 0.00 0.02 0.01 70 1017.5
20260903191008 67 270 9.0 13.0 0.00 0.02 0.01 68 1017.4
20260903190016 68 270 10.0 14.0 0.00 0.02 0.01 67 1017.1
20260903185008 68 270 9.0 15.0 0.00 0.02 0.01 65 1017.1
20260903184008 67 135 8.0 12.0 0.00 0.02 0.01 67 1017.1
20260903183011 67 135 3.0 4.0 0.00 0.02 0.01 69 1016.8
20260903182006 66 270 2.0 4.0 0.00 0.02 0.01 71 1016.8
20260903181008 66 225 0.0 2.0 0.00 0.02 0.01 72 1016.7
20260903175008 66 225 0.0 1.0 0.00 0.02 0.01 70 1016.5
20260903174007 67 225 0.0 0.0 0.00 0.02 0.01 69 1016.4
20260903173011 67 225 0.0 2.0 0.00 0.02 0.01 70 1016.5
20260903172008 67 225 1.0 2.0 0.00 0.02 0.01 71 1016.6
20260903171007 67 270 1.0 3.0 0.00 0.02 0.01 68 1016.5
20260903165008 69 270 2.0 4.0 0.00 0.02 0.01 68 1016.7
20260903164009 69 270 3.0 5.0 0.00 0.02 0.01 66 1016.9
20260903163012 70 135 3.0 4.0 0.00 0.02 0.01 65 1016.6
20260903161007 71 225 1.0 4.0 0.00 0.02 0.01 64 1016.5
20260903160012 71 270 1.0 2.0 0.00 0.02 0.01 59 1016.8
20260903155006 71 270 0.0 1.0 0.00 0.02 0.01 64 1016.7
20260903154008 71 135 0.0 2.0 0.00 0.02 0.01 60 1016.7
20260903152007 71 0 1.0 3.0 0.00 0.02 0.01 59 1017.1
20260903150013 71 180 3.0 6.0 0.00 0.02 0.01 59 1017.0
20260903145012 72 270 4.0 8.0 0.00 0.02 0.01 56 1016.9
20260903143009 76 135 2.0 4.0 0.00 0.02 0.01 55 1016.7
20260903142009 75 0 4.0 8.0 0.00 0.02 0.01 54 1017.0
20260903141010 75 270 4.0 8.0 0.00 0.02 0.01 53 1016.9
20260903140011 74 270 4.0 7.0 0.00 0.02 0.01 56 1017.2
20260903135011 74 270 3.0 5.0 0.00 0.02 0.01 59 1017.1
20260903133013 73 135 3.0 4.0 0.00 0.02 0.01 64 1017.2
20260903132012 71 135 2.0 4.0 0.00 0.02 0.01 63 1017.1
20260903131010 72 135 3.0 4.0 0.00 0.02 0.01 61 1017.4
20260903130017 71 0 2.0 4.0 0.00 0.02 0.01 64 1017.6
20260903125006 71 225 3.0 4.0 0.00 0.02 0.01 63 1017.5
20260903124008 71 135 4.0 7.0 0.00 0.02 0.01 63 1017.5
20260903123010 71 135 3.0 4.0 0.00 0.02 0.01 63 1017.5
20260903122006 71 135 2.0 4.0 0.00 0.02 0.01 64 1017.5
20260903120020 71 135 5.0 8.0 0.00 0.02 0.01 65 1017.8
20260903115007 71 270 5.0 9.0 0.00 0.02 0.01 64 1017.9
20260903114010 71 270 4.0 8.0 0.00 0.02 0.01 61 1018.0
20260903113013 74 270 7.0 11.0 0.00 0.02 0.01 60 1018.0
20260903112006 73 315 6.0 11.0 0.00 0.02 0.01 62 1018.0
20260903111006 73 135 4.0 7.0 0.00 0.02 0.01 60 1018.4
20260903110016 74 135 5.0 9.0 0.00 0.02 0.01 59 1018.2
20260903105006 74 270 6.0 9.0 0.00 0.02 0.01 63 1018.1
20260903104012 73 270 4.0 8.0 0.00 0.02 0.01 63 1018.4
20260903103012 73 45 6.0 11.0 0.00 0.02 0.01 62 1018.4
20260903102008 72 0 4.0 7.0 0.00 0.02 0.01 66 1018.5
20260903101010 71 135 4.0 7.0 0.01 0.02 0.01 62 1018.6
20260903100015 71 135 3.0 4.0 0.01 0.02 0.01 65 1018.6
20260903095009 71 270 2.0 5.0 0.01 0.02 0.01 66 1018.8
20260903094007 71 135 3.0 5.0 0.01 0.02 0.01 68 1018.8
20260903093012 69 135 3.0 4.0 0.01 0.02 0.01 70 1018.9
20260903092007 69 135 1.0 3.0 0.01 0.02 0.01 71 1018.9
20260903091014 69 135 2.0 4.0 0.00 0.01 0.00 72 1018.9
20260903090012 69 270 2.0 4.0 0.00 0.01 0.00 71 1019.1
20260903085009 67 270 2.0 4.0 0.00 0.01 0.00 72 1019.3
20260903084007 67 135 2.0 4.0 0.00 0.01 0.00 75 1019.3
20260903083011 67 270 2.0 4.0 0.00 0.01 0.00 76 1019.5
20260903082009 66 225 1.0 4.0 0.00 0.01 0.00 78 1019.4
20260903081007 64 225 1.0 4.0 0.00 0.01 0.00 79 1019.5
20260903080018 64 270 2.0 4.0 0.00 0.01 0.00 80 1019.4
20260903075007 64 270 2.0 4.0 0.00 0.01 0.00 82 1019.6
20260903074008 62 225 1.0 2.0 0.00 0.01 0.00 84 1019.7
20260903072007 61 180 1.0 3.0 0.00 0.01 0.00 87 1019.7
20260903070016 59 180 1.0 2.0 0.00 0.01 0.00 91 1019.7
20260903065007 59 270 0.0 3.0 0.00 0.01 0.00 90 1019.7
20260903064006 59 225 2.0 4.0 0.00 0.01 0.00 92 1019.9
20260903063009 58 180 1.0 2.0 0.00 0.01 0.00 93 1019.7
20260903062008 57 225 1.0 2.0 0.00 0.01 0.00 95 1019.8
20260903061010 56 225 1.0 3.0 0.00 0.01 0.00 96 1019.9
20260903060010 56 270 1.0 3.0 0.00 0.01 0.00 97 1020.0
20260903055007 55 270 1.0 2.0 0.00 0.01 0.00 98 1019.8
20260903054008 54 90 0.0 1.0 0.00 0.01 0.00 98 1019.7
20260903053016 53 90 1.0 2.0 0.00 0.01 0.00 98 1019.7
20260903050014 52 225 0.0 0.0 0.00 0.01 0.00 98 1019.8
20260903045008 51 225 0.0 0.0 0.00 0.01 0.00 98 1019.8
20260903044007 51 225 0.0 0.0 0.00 0.01 0.00 98 1019.9
20260903043010 51 225 0.0 1.0 0.00 0.01 0.00 97 1019.5
20260903041007 51 180 0.0 0.0 0.00 0.01 0.00 97 1019.5
20260903040011 51 180 0.0 0.0 0.00 0.01 0.00 97 1019.5
20260903035009 51 225 0.0 0.0 0.00 0.01 0.00 97 1019.5
20260903034009 52 225 0.0 0.0 0.00 0.01 0.00 97 1019.5
20260903033013 52 225 0.0 1.0 0.00 0.01 0.00 97 1019.4
20260903032008 53 90 0.0 1.0 0.00 0.01 0.00 97 1019.4
20260903031009 53 90 0.0 2.0 0.00 0.01 0.00 97 1019.4
20260903030017 53 90 0.0 1.0 0.00 0.01 0.00 97 1019.5
20260903025005 53 45 0.0 1.0 0.00 0.01 0.00 97 1019.4
20260903021010 54 0 2.0 4.0 0.00 0.01 0.00 97 1019.5
20260903020015 53 0 1.0 4.0 0.00 0.01 0.00 97 1019.5
20260903015008 53 270 0.0 2.0 0.00 0.01 0.00 97 1019.4